Regional Weather Roundup
Issued by NWS Bismarck, ND

Home | Current Version | Previous Version | Text Only | Print | Product List | Glossary On
Versions: 1 2 3 4 5 6 7 8 9 10 11 12 13 14 15 16 17 18 19 20 21 22 23 24 25 26 27 28 29 30 31 32 33 34 35 36 37 38 39 40 41 42 43 44 45 46 47 48 49 50
000
ASUS43 KBIS 301810
RWRBIS

NWR BROADCAST TEXT
NATIONAL WEATHER SERVICE BISMARCK ND
100 PM CDT WED JUL 30 2014

NOTE: "FAIR" INDICATES FEW OR NO CLOUDS BELOW 12,000 FEET WITH NO
SIGNIFICANT WEATHER AND/OR OBSTRUCTIONS TO VISIBILITY.


CITY           SKY/WX    TMP DP  RH WIND       PRES   REMARKS
WILLISTON      SUNNY     81  50  33 N13       30.18F
MINOT          FAIR      77  57  50 CALM      30.15F
MINOT AFB      FAIR      75  58  55 VRB3      30.14F
BISMARCK       MOSUNNY   79  56  45 N7        30.15F
DICKINSON      MOSUNNY   78  53  41 NW6       30.17F
GARRISON         N/A     76  60  57 SW5       30.16F
HETTINGER ARPT SUNNY     79  55  43 N9        30.19F
JAMESTOWN      FAIR      76  51  41 N6        30.14F
CARRINGTON     FAIR      73  54  49 N5        30.16F
CROSBY         FAIR      73  55  53 NE6       30.20S
HARVEY         FAIR      75  57  53 CALM      30.15F
HAZEN            N/A     77  55  47 NW3       30.16F
LINTON         FAIR      77  57  50 N5        30.15F
MANDAN         FAIR      75  55  50 E7        30.17F
RUGBY          FAIR      75  57  53 W3        30.14F
STANLEY        FAIR      75  57  53 N7        30.18S
TIOGA          FAIR      73  55  53 N6        30.22S
WATFORD CITY   FAIR      77  52  41 N10       30.16S
$$

CITY           SKY/WX    TMP DP  RH WIND       PRES   REMARKS
GRAND FORKS    FAIR      79  57  46 N7        30.09F
GRAND FORKS AF FAIR      78  57  49 N10       30.11F
DEVILS LAKE    FAIR      75  54  46 N7        30.12F
FARGO          FAIR      78  52  40 W7        30.11F
CANDO          FAIR      77  57  50 NW8       30.14F
CAVALIER       FAIR      77  54  44 N7        30.09F
GRAFTON        FAIR      77  55  47 N10       30.09F
GWINNER        CLEAR     77  52  41 W5        30.14F
LANGDON        FAIR      79  54  41 NW10      30.13F
ROLLA            N/A     73  55  53 N10G23    30.16F
WALHALLA       FAIR      77  57  50 N8G16       N/A
$$

CITY           SKY/WX    TMP DP  RH WIND       PRES   REMARKS
ABERDEEN       MOSUNNY   78  54  43 E5        30.13F
MOBRIDGE       MOSUNNY   80  56  43 SE6       30.11F
BUFFALO          N/A     78  49  35 N12       30.14F
RAPID CITY     MOSUNNY   80  55  42 VRB5      30.19F
GLASGOW        SUNNY     86  49  27 S10       30.15F
SIDNEY         SUNNY     81  54  39 E8        30.19F
WOLF POINT     SUNNY     85  48  27 VRB3      30.16F
GLENDIVE       SUNNY     79  52  38 E3        30.20F
MILES CITY     SUNNY     83  47  28 E5        30.19F
BAKER          SUNNY     81  50  33 VRB3      30.21F
$$

CITY           SKY/WX    TMP DP  RH WIND       PRES   REMARKS
BILLINGS       MOSUNNY   81  49  32 CALM      30.23F
GREAT FALLS    SUNNY     89  40  17 SE7       30.15F
REGINA         MOSUNNY   75  57  53 SW9       30.17F
ESTEVAN        MOSUNNY   75  54  46 NE7       30.20S
$$



USA.gov is the U.S. government's official web portal to all federal, state and local government web resources and services.